Location: Bouchavesnes-Bergen
(49.9859°N, 2.9203°E)
Time: 11:46:16
(UTC+00:00)

Cosmos 1833 - Pass Details

Date: 09 March 2021
Orbit: 836 x 862 km, 70.9° (Epoch: 13 April)

Event Time Altitude Azimuth Distance (km) Brightness Sun altitude
Exits shadow 03:48:21 47° 199° (SSW) 1,094 4.5 -23.9°
Maximum altitude 03:50:01 83° 118° (ESE) 850 4.1 -23.6°
Drops below altitude 10° 03:55:41 10° 30° (NNE) 2,460 7.3 -22.8°
Sets 03:58:07 0° 30° (NNE) 3,399 8.1 -22.4°
